Wind_Speed
10 11 11 12 13 20 25 29 31 31 32 33 31 30 33 32 28 23 20 20 15 14 12 11 10 12 14 14 11 10 10 9 10
12 12 11 12 14 21 24 24 31 32 32 33 30 31 30 32 30 27 23 20 19 16 14 11 8 11 11 14 14 12 11 11 10
8 7 8 9 12 20 25 26 28 30 32 33 33 32 30 31 32 29 26 22 23 21 18 17 16 14 15 17 17 16 13 12 11
9 10 9 9 10 16 18 21 24 29 29 28 28 29 29 30 31 32 30 26 27 27 23 21 19 16 16 15 17 18 17 16 14
6 7 8 8 9 13 17 19 21 24 28 29 30 28 25 27 28 27 30 33 30 28 27 24 22 19 20 20 17 17 19 20 17
7 7 6 6 6 10 16 19 23 23 22 26 28 24 24 26 27 27 26 28 29 27 26 27 25 22 23 22 21 17 17 20 20
8 8 9 6 4 5 12 17 19 19 18 19 20 20 22 21 21 23 23 23 23 23 24 27 25 23 22 22 21 18 17 17 18
7 8 8 7 6 6 11 13 14 15 14 14 14 17 17 16 16 17 16 15 14 17 22 25 25 24 23 22 23 22 20 20 20
8 7 8 7 5 6 9 13 14 13 13 14 15 19 15 12 12 12 10 10 14 16 17 22 24 22 21 24 26 25 24 23 22
10 7 7 9 9 9 11 9 7 6 6 8 12 14 13 13 14 14 13 16 14 14 18 18 20 20 19 21 23 26 26 26 26
8 9 9 9 10 13 13 11 7 5 5 6 7 7 8 9 11 13 15 15 16 18 14 16 18 18 16 17 18 19 21 23 25
16 13 10 12 18 22 18 14 11 10 9 7 5 2 2 3 4 6 7 12 13 15 17 16 19 17 14 16 18 17 19 20 23
14 12 16 16 21 22 19 15 14 10 8 5 2 2 3 2 3 3 3 4 5 6 13 15 15 17 16 15 17 16 16 15 17
16 19 22 24 24 23 19 17 16 13 9 6 4 2 3 2 3 4 5 5 3 3 4 6 11 13 14 13 13 13 13 12 13
17 16 19 23 19 21 18 17 14 10 7 5 5 6 3 1 3 4 5 5 5 4 4 5 4 6 10 9 11 15 16 16 14
12 18 22 23 25 23 19 18 16 14 10 7 5 6 5 4 2 4 7 6 5 6 5 4 4 4 5 5 4 5 7 8 9
11 18 22 25 26 21 21 20 17 12 13 9 7 7 6 5 3 1 5 6 5 4 4 4 4 5 8 11 12 14 15 15 14
7 9 14 22 22 22 24 21 18 15 14 12 10 9 9 8 4 2 4 4 5 5 4 3 4 4 5 7 9 11 12 13 13
15 17 19 15 11 8 23 22 19 16 14 11 11 10 11 10 7 5 4 4 6 6 7 6 7 8 8 9 11 11 12 13 12
20 21 29 12 3 11 17 23 20 17 15 11 8 7 9 11 10 9 8 7 5 4 5 5 5 7 9 10 11 11 11 11 11
Wind_Direction
176 173 181 185 185 184 196 203 206 207 216 220 220 224 229 227 228 235 232 232 234 232 238 263 249 245 250 254 255 264 269 256 257
177 183 180 184 188 192 196 200 205 206 208 217 219 221 223 227 229 229 236 236 236 232 239 245 253 251 250 259 251 251 261 257 259
180 181 178 181 194 198 202 205 207 213 215 215 221 223 229 229 234 235 236 236 242 245 248 251 251 248 252 254 253 249 249 251 250
185 185 193 196 201 203 200 205 206 212 214 217 222 226 228 231 238 240 240 241 244 248 255 253 247 242 239 252 261 251 247 247 248
204 189 183 190 188 183 190 191 195 206 215 223 223 220 233 237 236 238 242 240 239 246 247 252 251 251 245 245 259 251 251 247 249
202 167 156 167 161 180 192 197 204 212 218 226 230 227 224 236 239 235 234 239 237 237 241 245 250 252 256 254 252 254 258 250 253
190 172 159 160 175 187 201 204 206 215 223 226 227 232 234 233 236 235 231 236 239 238 240 243 242 248 257 257 257 255 259 252 261
168 159 150 167 180 189 198 208 209 219 224 224 223 213 215 229 240 242 240 240 246 250 245 246 244 246 247 252 253 257 261 259 266
174 177 155 168 168 171 195 203 207 216 231 235 228 224 234 231 228 231 252 279 257 252 254 247 247 242 244 245 255 261 265 266 270
182 171 169 173 176 185 179 193 201 207 199 205 215 222 228 243 246 248 262 272 253 251 249 249 241 244 244 249 256 262 265 267 267
188 181 173 186 173 178 173 178 184 184 182 180 198 225 246 252 258 258 263 259 255 244 249 248 245 243 247 250 258 266 271 268 261
191 187 187 183 184 171 170 175 172 160 153 157 165 194 281 314 272 273 275 259 258 254 261 257 243 241 246 256 261 267 274 274 268
183 168 171 178 182 161 161 169 166 154 146 142 156 283 310 17 45 42 347 312 311 287 254 253 247 244 245 256 258 257 261 268 266
175 165 166 177 177 163 162 163 161 152 154 157 154 137 140 107 43 25 6 347 321 285 248 241 236 233 224 228 239 243 251 265 285
152 152 155 162 155 156 164 171 166 158 166 165 173 169 155 37 20 22 8 350 334 333 321 284 267 250 246 253 256 265 272 272 276
173 153 154 156 154 154 163 167 173 167 176 177 177 174 176 187 262 345 2 3 353 343 336 314 296 289 284 268 271 270 278 280 270
158 153 156 155 150 151 161 171 176 179 172 174 183 199 201 194 185 15 342 7 22 11 343 345 350 326 316 312 305 302 305 305 300
127 131 148 151 154 155 167 173 171 167 166 168 170 190 202 203 200 123 87 68 55 52 37 17 19 15 349 334 342 349 344 344 336
111 90 89 84 93 164 172 176 173 174 177 177 173 176 190 197 185 161 125 98 84 73 65 63 72 79 72 68 62 52 43 35 23
113 113 108 87 250 217 239 184 182 187 189 189 188 192 192 199 205 188 174 166 152 130 86 63 45 63 74 72 68 56 42 31 25
Height
751 757 761 765 768 772 775 779 784 789 792 797 801 805 809 814 817 820 821 824 826 827 829 831 832 834 836 838 839 840 841 842 843
750 752 756 760 764 767 770 775 778 783 789 793 797 800 805 809 813 816 818 821 823 824 826 827 829 831 833 834 835 836 838 839 840
750 751 755 757 760 762 765 770 774 780 784 787 792 797 800 804 807 811 813 816 819 820 822 823 824 826 829 831 832 833 834 835 837
746 748 751 752 755 759 765 769 773 777 781 785 789 792 796 799 802 805 808 810 813 816 818 820 821 822 824 827 829 830 831 832 833
741 744 747 750 753 757 762 765 770 774 778 782 785 789 794 795 797 800 803 805 807 811 813 817 819 819 819 821 824 826 828 829 830
740 742 746 750 753 755 758 763 768 772 774 777 781 786 789 792 793 795 797 800 803 805 808 811 814 816 816 817 818 820 822 825 827
737 741 746 749 751 753 757 760 764 768 772 775 778 782 785 787 790 791 793 796 799 801 803 807 809 811 813 814 815 816 819 821 823
736 740 745 748 751 752 755 758 762 766 769 773 776 779 783 784 786 790 792 791 793 796 799 802 804 805 807 810 812 813 814 816 817
734 735 739 744 747 750 753 756 761 764 766 769 773 776 779 783 786 787 788 786 789 792 794 797 798 798 800 803 807 809 810 812 812
731 734 738 742 743 747 750 753 756 760 763 766 770 774 777 780 782 783 784 785 786 787 789 792 791 792 794 796 800 803 805 807 808
730 731 732 737 740 743 746 750 754 757 760 763 767 771 774 777 778 779 780 780 781 783 785 786 786 787 789 791 793 797 799 801 803
717 722 724 731 737 740 745 749 753 756 759 762 766 769 772 773 774 775 776 776 777 778 780 779 781 782 784 786 788 790 792 795 796
712 717 723 730 736 738 745 751 754 757 759 761 764 767 769 770 771 772 773 774 774 774 774 774 777 777 778 780 782 784 785 787 788
704 712 720 728 735 735 743 751 755 758 760 762 764 765 767 769 770 771 772 772 772 772 773 773 773 772 773 775 777 777 778 779 780
700 710 720 726 734 737 743 750 754 758 760 762 764 765 767 769 770 771 771 772 772 772 771 771 770 770 771 771 773 774 775 774 771
705 707 716 724 730 736 744 748 752 756 759 761 762 764 765 768 769 769 769 769 770 770 771 770 769 769 770 771 770 771 773 770 766
705 708 715 721 728 736 743 748 752 756 758 761 763 764 764 765 768 769 769 769 768 769 770 771 770 769 768 768 768 769 768 766 765
706 712 718 721 726 733 742 749 752 755 758 761 762 764 765 765 766 768 770 771 770 770 771 771 771 770 770 771 770 768 768 765 764
705 716 724 730 738 744 743 748 751 754 757 759 761 764 765 766 767 768 769 770 771 772 772 772 772 773 774 775 773 772 770 768 768
710 714 717 732 747 740 754 748 749 753 754 756 759 762 764 765 767 768 770 771 772 774 775 775 775 774 774 774 774 774 773 772 771